Date String (YYYY-MM-DD hh:mm:ss) UTC,Instrument flags,Ambient pressure (hPa),Sample flow (lpm),Bypass flow (lpm),Sample temperature (°C),Ambient temperature (°C),ASC tube jacket temperature (°C),LED temperature (°C),Box temperature (°C),Sample RH (%),Span deviation,Mass concentration (μg/m³),Mass concentration (μg/m³),Mass concentration (μg/m³)
DateTimeUTC,F1_M11,P_M11,Q1_M11,Q2_M11,T1_M11,T2_M11,T3_M11,T4_M11,T5_M11,U1_M11,ZSPAN_M11,X2_M11,X0_M11,X1_M11
2022-10-26 18:00:00,,0820.6,5.00,0.00,23.8,22.6,00.0,32.5,25.7,16.3,0000.0,0004.56,0014.39,0003.77
2022-10-26 18:01:00,,0820.6,5.01,0.00,23.8,22.7,00.0,32.5,25.8,16.3,0000.0,0004.60,0014.40,0003.79
2022-10-26 18:02:00,,0820.6,5.01,0.00,23.8,22.7,00.0,32.5,25.8,16.3,0000.0,0004.58,0014.21,0003.79
2022-10-26 18:03:00,,0820.6,5.01,0.00,23.9,22.7,00.0,32.5,25.9,16.1,0000.0,0004.50,0013.96,0003.75
2022-10-26 18:04:00,,0820.7,5.00,0.00,23.9,22.8,00.0,32.6,25.9,16.1,0000.0,0004.43,0013.81,0003.72
2022-10-26 18:05:00,,0820.6,4.99,0.00,23.9,22.8,00.0,32.6,25.9,16.0,0000.0,0004.40,0013.16,0003.69
2022-10-26 18:06:00,,0820.6,4.99,0.00,23.9,22.8,00.0,32.6,25.9,16.0,0000.0,0004.38,0012.05,0003.66
2022-10-26 18:07:00,,0820.6,5.00,0.00,23.9,22.9,00.0,32.6,25.9,16.0,0000.0,0004.33,0011.22,0003.62
2022-10-26 18:08:00,,0820.6,4.99,0.00,24.0,22.9,00.0,32.7,25.9,15.9,0000.0,0004.29,0010.61,0003.59
2022-10-26 18:09:00,,0820.6,4.99,0.00,24.0,22.9,00.0,32.7,26.0,15.9,0000.0,0004.26,0010.39,0003.54
2022-10-26 18:10:00,,0820.6,5.01,0.00,24.0,22.9,00.0,32.7,26.0,15.8,0000.0,0004.21,0010.09,0003.49
2022-10-26 18:11:00,,0820.5,5.01,0.00,24.0,22.9,00.0,32.7,26.0,16.0,0000.0,0004.16,0010.00,0003.44
2022-10-26 18:12:00,,0820.5,5.00,0.00,24.0,23.0,00.0,32.7,26.1,16.0,0000.0,0004.10,0010.32,0003.42
2022-10-26 18:13:00,,0820.4,5.00,0.00,24.1,23.0,00.0,32.7,26.1,15.9,0000.0,0004.11,0010.22,0003.41
2022-10-26 18:14:00,,0820.4,4.99,0.00,24.1,23.0,00.0,32.8,26.1,15.9,0000.0,0004.12,0010.11,0003.42
2022-10-26 18:15:00,,0820.4,5.00,0.00,24.1,23.0,00.0,32.8,26.1,15.9,0000.0,0004.17,0010.68,0003.44
2022-10-26 18:16:00,,0820.4,4.99,0.00,24.1,23.0,00.0,32.8,26.1,16.0,0000.0,0004.18,0011.10,0003.45
2022-10-26 18:17:00,,0820.3,5.00,0.00,24.2,23.1,00.0,32.8,26.1,15.9,0000.0,0004.17,0010.71,0003.46
2022-10-26 18:18:00,,0820.2,5.00,0.00,24.2,23.1,00.0,32.8,26.2,15.9,0000.0,0004.21,0010.25,0003.49
2022-10-26 18:19:00,,0820.2,5.00,0.00,24.2,23.1,00.0,32.9,26.2,15.9,0000.0,0004.24,0011.82,0003.52
2022-10-26 18:20:00,,0820.2,5.00,0.00,24.2,23.1,00.0,32.9,26.2,15.7,0000.0,0004.25,0012.50,0003.55
2022-10-26 18:21:00,,0820.2,5.00,0.00,24.2,23.1,00.0,32.9,26.3,15.7,0000.0,0004.29,0012.79,0003.57
2022-10-26 18:22:00,,0820.2,4.99,0.00,24.3,23.2,00.0,32.9,26.3,15.7,0000.0,0004.33,0012.92,0003.59
2022-10-26 18:23:00,,0820.2,5.02,0.00,24.3,23.2,00.0,33.0,26.3,15.7,0000.0,0004.35,0013.77,0003.59
2022-10-26 18:24:00,,0820.2,5.00,0.00,24.3,23.2,00.0,33.0,26.3,15.6,0000.0,0004.38,0014.30,0003.60
2022-10-26 18:25:00,,0820.2,4.99,0.00,24.3,23.2,00.0,33.0,26.3,15.7,0000.0,0004.48,0014.31,0003.61
2022-10-26 18:26:00,,0820.2,4.99,0.00,24.3,23.2,00.0,33.0,26.4,15.7,0000.0,0004.50,0014.77,0003.63
2022-10-26 18:27:00,,0820.2,4.99,0.00,24.3,23.2,00.0,33.0,26.4,15.6,0000.0,0004.53,0014.67,0003.65
2022-10-26 18:28:00,,0820.1,5.00,0.00,24.4,23.2,00.0,33.0,26.4,15.6,0000.0,0004.58,0014.94,0003.67
2022-10-26 18:29:00,,0820.0,5.02,0.00,24.4,23.3,00.0,33.1,26.4,15.7,0000.0,0004.63,0015.64,0003.68
2022-10-26 18:30:00,,0820.0,5.00,0.00,24.4,23.3,00.0,33.1,26.4,15.7,0000.0,0004.65,0014.92,0003.71
2022-10-26 18:31:00,,0820.0,4.99,0.00,24.4,23.3,00.0,33.1,26.4,15.7,0000.0,0004.69,0014.39,0003.74
2022-10-26 18:32:00,,0820.0,4.99,0.00,24.4,23.3,00.0,33.1,26.4,15.7,0000.0,0004.75,0014.17,0003.77
2022-10-26 18:33:00,,0820.1,4.99,0.00,24.4,23.3,00.0,33.1,26.4,15.6,0000.0,0004.80,0014.30,0003.79
2022-10-26 18:34:00,,0820.1,5.02,0.00,24.4,23.3,00.0,33.1,26.4,15.6,0000.0,0004.81,0012.94,0003.81
2022-10-26 18:35:00,,0820.1,5.01,0.00,24.5,23.3,00.0,33.2,26.5,15.5,0000.0,0004.76,0012.51,0003.81
2022-10-26 18:36:00,,0820.1,5.00,0.00,24.5,23.4,00.0,33.2,26.5,15.5,0000.0,0004.69,0012.77,0003.81
2022-10-26 18:37:00,,0820.0,5.00,0.00,24.5,23.4,00.0,33.2,26.5,15.5,0000.0,0004.68,0012.28,0003.81
2022-10-26 18:38:00,,0820.0,5.00,0.00,24.5,23.4,00.0,33.2,26.5,15.5,0000.0,0004.68,0011.98,0003.82
2022-10-26 18:39:00,,0820.0,5.00,0.00,24.5,23.4,00.0,33.2,26.6,15.7,0000.0,0004.66,0011.70,0003.82
2022-10-26 18:40:00,,0820.0,4.99,0.00,24.6,23.4,00.0,33.2,26.6,15.6,0000.0,0004.61,0011.27,0003.82
2022-10-26 18:41:00,,0820.0,4.99,0.00,24.6,23.4,00.0,33.3,26.5,15.5,0000.0,0004.58,0011.44,0003.81
2022-10-26 18:42:00,,0819.9,5.00,0.00,24.6,23.5,00.0,33.3,26.6,15.4,0000.0,0004.59,0012.50,0003.80
2022-10-26 18:43:00,,0819.9,5.00,0.00,24.6,23.5,00.0,33.3,26.6,15.4,0000.0,0004.60,0012.71,0003.79
2022-10-26 18:44:00,,0819.9,5.00,0.00,24.6,23.5,00.0,33.3,26.6,15.4,0000.0,0004.56,0012.60,0003.80
2022-10-26 18:45:00,,0819.9,5.00,0.00,24.6,23.5,00.0,33.3,26.6,15.4,0000.0,0004.58,0012.61,0003.82
2022-10-26 18:46:00,,0819.9,5.00,0.00,24.7,23.6,00.0,33.4,26.7,15.4,0000.0,0004.67,0013.19,0003.86
2022-10-26 18:47:00,,0819.9,5.00,0.00,24.7,23.6,00.0,33.4,26.7,15.5,0000.0,0004.71,0012.98,0003.87
2022-10-26 18:48:00,,0819.9,5.00,0.00,24.7,23.6,00.0,33.4,26.7,15.4,0000.0,0004.73,0012.60,0003.89
2022-10-26 18:49:00,,0819.8,5.00,0.00,24.7,23.6,00.0,33.4,26.7,15.3,0000.0,0004.76,0013.85,0003.90
2022-10-26 18:50:00,,0819.8,4.99,0.00,24.7,23.6,00.0,33.4,26.7,15.3,0000.0,0004.80,0014.70,0003.90
2022-10-26 18:51:00,,0819.7,5.00,0.00,24.7,23.6,00.0,33.4,26.7,15.3,0000.0,0004.81,0014.39,0003.91
2022-10-26 18:52:00,,0819.7,4.99,0.00,24.8,23.7,00.0,33.5,26.8,15.2,0000.0,0004.82,0013.85,0003.91
2022-10-26 18:53:00,,0819.8,5.00,0.00,24.8,23.7,00.0,33.5,26.8,15.2,0000.0,0004.79,0013.03,0003.92
2022-10-26 18:54:00,,0819.8,5.01,0.00,24.8,23.7,00.0,33.5,26.8,15.2,0000.0,0004.79,0013.44,0003.92
2022-10-26 18:55:00,,0819.8,5.00,0.00,24.8,23.7,00.0,33.5,26.8,15.2,0000.0,0004.80,0013.35,0003.91
2022-10-26 18:56:00,,0819.8,5.01,0.00,24.8,23.8,00.0,33.5,26.8,15.2,0000.0,0004.79,0013.20,0003.90
2022-10-26 18:57:00,,0819.8,5.01,0.00,24.9,23.8,00.0,33.5,26.8,15.1,0000.0,0004.78,0012.68,0003.90
2022-10-26 18:58:00,,0819.7,5.00,0.00,24.9,23.8,00.0,33.6,26.8,15.1,0000.0,0004.77,0012.88,0003.92
2022-10-26 18:59:00,,0819.7,5.00,0.00,24.9,23.8,00.0,33.6,26.9,15.0,0000.0,0004.80,0013.27,0003.94
